STARLINK-4299 (53172 NORAD) Tracking and Keplerian Element Data

This shows tracking and keplerian element data for the satellite.

Feedback or suggestion? Click here.




ElementValue
Catalog53172
NameSTARLINK-4299
Epoch Orbit1190
Epoch Day270.25001157
Epoch Year2022
RAAN54.2259
Inclination53.217
Eccentricity0.000169
Argument of Perigee39.8761
Mean Anonmoly134.2512
Mean Motion15.37542915
Decay Rate-0.01069476
L11 53172U 22083AS 22270.25001157 -.01069476 00000+0 -31160-1 0 9993
L22 53172 53.2170 54.2259 0001690 39.8761 134.2512 15.37542915 11906

Live tracking and technical data element details for STARLINK-4299 (NORAD 53172). STARLINK-4299 can be tracked NOW for your location showing map with azimuth and elevation plus other details from your city location.

Track the satellite on the map from your city or location and see movement details for azimuth, elevation, latitude, longitude, range, height, and movement on the map or in text.







IsCatalogInMostPopularTable: catalog: 53172, numindb: 5
Update: records affected: 1



GetName: 53172 STARLINK-4299

Hit Count: updated at: Thu, 29 Sep 2022 11:26:11 GMT